ONEWEB-0230 (48769 NORAD) Tracking and Keplerian Element Data

This shows tracking and keplerian element data for the satellite.

Feedback or suggestion? Click here.




ElementValue
Catalog48769
NameONEWEB-0230
Epoch Orbit176
Epoch Day170.58334491
Epoch Year2021
RAAN268.8831
Inclination87.3988
Eccentricity0.0007498
Argument of Perigee168.1355
Mean Anonmoly155.0469
Mean Motion15.37848044
Decay Rate-0.00886297
L11 48769U 21045C 21170.58334491 -.00886297 00000-0 -25911-1 0 9995
L22 48769 87.3988 268.8831 0007498 168.1355 155.0469 15.37848044 1760

Live tracking and technical data element details for ONEWEB-0230 (NORAD 48769). ONEWEB-0230 can be tracked NOW for your location showing map with azimuth and elevation plus other details from your city location.

Track the satellite on the map from your city or location and see movement details for azimuth, elevation, latitude, longitude, range, height, and movement on the map or in text.







IsCatalogInMostPopularTable: catalog: 48769, numindb: 2
Update: records affected: 1



GetName: 48769 ONEWEB-0230

Hit Count: updated at: Mon, 21 Jun 2021 04:58:13 GMT